Location: *
(49.3500°N, 12.6000°E)
Time: 11:54:03
(UTC+00:00)

STARLINK-29 - Pass Details

Date: 18 October 2019
Orbit: 438 x 449 km, 53.0° (Epoch: 17 November)

Event Time Altitude Azimuth Distance (km) Brightness Sun altitude
Rises 17:44:07 0° 291° (WNW) 2,434 8.4 -15.4°
Reaches altitude 10° 17:46:15 10° 295° (WNW) 1,564 7.1 -15.7°
Maximum altitude 17:49:45 66° 18° (NNE) 488 3.2 -16.3°
Enters shadow 17:50:48 41° 85° (E) 662 3.5 -16.5°
